Time,TemperatureF,DewpointF,PressureIn,WindDirection,WindDirectionDegrees,WindSpeedMPH,WindSpeedGustMPH,Humidity,HourlyPrecipIn,Conditions,Clouds,dailyrainin,SoftwareType,DateUTC
2013-01-28 00:00:00,22.5,4.2,30.24,NE,35,8.5,13.1,44,0.00,,,0.00,Meteorologica,2013-01-28 05:00:00,
2013-01-28 19:04:00,53.1,47.3,30.26,SSE,155,0.6,3.7,80,0.00,,,0.00,Meteorologica,2013-01-29 00:04:00,
2013-01-28 19:05:00,53.2,47.5,30.26,SSE,164,1.3,3.7,80,0.00,,,0.00,Meteorologica,2013-01-29 00:05:00,
2013-01-28 19:10:00,53.1,47.4,30.26,South,184,0.5,4.0,81,0.00,,,0.00,Meteorologica,2013-01-29 00:10:00,
2013-01-28 19:15:00,53.0,47.4,30.27,SSW,205,1.7,7.7,81,0.00,,,0.00,Meteorologica,2013-01-29 00:15:00,
2013-01-28 19:20:00,53.0,47.6,30.27,ESE,121,1.6,5.0,81,0.00,,,0.00,Meteorologica,2013-01-29 00:20:00,
2013-01-28 19:25:00,52.9,47.6,30.27,SE,146,3.1,5.3,82,0.00,,,0.00,Meteorologica,2013-01-29 00:25:00,
2013-01-28 19:30:00,52.8,47.7,30.27,SSE,168,4.6,8.2,82,0.00,,,0.00,Meteorologica,2013-01-29 00:30:00,
2013-01-28 19:35:00,52.8,47.9,30.27,South,186,4.4,7.8,83,0.00,,,0.00,Meteorologica,2013-01-29 00:35:00,
2013-01-28 19:40:00,52.6,47.8,30.27,South,186,3.3,5.6,83,0.00,,,0.00,Meteorologica,2013-01-29 00:40:00,
2013-01-28 19:45:00,52.6,47.8,30.27,South,172,2.2,6.9,83,0.00,,,0.00,Meteorologica,2013-01-29 00:45:00,
2013-01-28 19:50:00,52.5,47.7,30.27,SSW,200,2.8,5.3,83,0.00,,,0.00,Meteorologica,2013-01-29 00:50:00,
2013-01-28 19:55:00,52.6,47.9,30.27,SW,215,3.5,9.5,84,0.00,,,0.00,Meteorologica,2013-01-29 00:55:00,
2013-01-28 20:00:00,52.4,47.8,30.27,South,177,3.0,5.5,84,0.00,,,0.00,Meteorologica,2013-01-29 01:00:00,
2013-01-28 20:05:00,52.4,47.8,30.27,South,178,1.7,6.9,84,0.00,,,0.00,Meteorologica,2013-01-29 01:05:00,
2013-01-28 20:10:00,52.3,47.8,30.27,SSW,196,5.6,5.6,84,0.00,,,0.00,Meteorologica,2013-01-29 01:10:00,
2013-01-28 20:15:00,52.3,47.9,30.27,SSW,196,2.5,8.2,84,0.00,,,0.00,Meteorologica,2013-01-29 01:15:00,
2013-01-28 20:20:00,52.2,47.9,30.26,SSW,194,2.3,6.8,85,0.00,,,0.00,Meteorologica,2013-01-29 01:20:00,
2013-01-28 20:25:00,52.2,48.0,30.27,SSW,210,2.5,6.6,85,0.00,,,0.00,Meteorologica,2013-01-29 01:25:00,
2013-01-28 20:30:00,52.1,48.0,30.27,SSW,192,2.8,4.2,85,0.00,,,0.00,Meteorologica,2013-01-29 01:30:00,
2013-01-28 20:35:00,52.2,48.1,30.27,South,188,2.7,6.2,86,0.00,,,0.00,Meteorologica,2013-01-29 01:35:00,
2013-01-28 20:40:00,52.2,48.2,30.27,SSW,212,3.2,3.7,86,0.00,,,0.00,Meteorologica,2013-01-29 01:40:00,
2013-01-28 20:45:00,52.0,48.1,30.27,SSW,203,3.8,5.4,86,0.00,,,0.00,Meteorologica,2013-01-29 01:45:00,
2013-01-28 20:50:00,52.0,48.1,30.27,SSW,208,3.5,7.8,86,0.00,,,0.00,Meteorologica,2013-01-29 01:50:00,
2013-01-28 20:55:00,51.9,48.0,30.27,South,182,2.1,5.9,86,0.00,,,0.00,Meteorologica,2013-01-29 01:55:00,
2013-01-28 21:00:00,51.8,48.1,30.27,South,191,2.3,5.4,87,0.00,,,0.00,Meteorologica,2013-01-29 02:00:00,
2013-01-28 21:05:00,51.8,48.3,30.27,SSW,203,1.9,2.9,88,0.00,,,0.00,Meteorologica,2013-01-29 02:05:00,
2013-01-28 21:10:00,51.7,48.4,30.27,SE,127,0.0,2.9,88,0.00,,,0.00,Meteorologica,2013-01-29 02:10:00,
2013-01-28 21:15:00,51.7,48.4,30.27,SE,127,0.0,0.0,88,0.00,,,0.00,Meteorologica,2013-01-29 02:15:00,
2013-01-28 21:21:00,51.3,48.1,30.27,SE,127,0.0,0.0,89,0.00,,,0.00,Meteorologica,2013-01-29 02:21:00,
2013-01-28 21:26:00,51.3,48.3,30.26,SE,127,0.0,0.0,89,0.00,,,0.00,Meteorologica,2013-01-29 02:26:00,
2013-01-28 21:31:00,51.2,48.4,30.26,SE,127,0.0,0.0,90,0.00,,,0.00,Meteorologica,2013-01-29 02:31:00,
2013-01-28 21:36:00,51.1,48.4,30.26,SE,127,0.0,0.0,90,0.00,,,0.00,Meteorologica,2013-01-29 02:36:00,
2013-01-28 21:41:00,51.1,48.6,30.26,SE,127,0.0,0.0,91,0.00,,,0.00,Meteorologica,2013-01-29 02:41:00,
2013-01-28 21:47:00,51.0,48.6,30.26,SE,127,0.0,0.0,91,0.00,,,0.00,Meteorologica,2013-01-29 02:47:00,
2013-01-28 21:52:00,50.8,48.7,30.27,SE,127,0.0,0.0,92,0.00,,,0.00,Meteorologica,2013-01-29 02:52:00,
2013-01-28 21:57:00,50.7,48.8,30.27,SE,127,0.0,0.0,93,0.00,,,0.00,Meteorologica,2013-01-29 02:57:00,
2013-01-28 22:03:00,50.6,48.8,30.26,SE,127,0.0,0.0,93,0.00,,,0.00,Meteorologica,2013-01-29 03:03:00,
2013-01-28 22:08:00,50.5,48.8,30.26,SE,127,0.0,0.0,94,0.00,,,0.00,Meteorologica,2013-01-29 03:08:00,
2013-01-28 22:13:00,50.3,48.8,30.26,SE,127,0.0,0.0,94,0.00,,,0.00,Meteorologica,2013-01-29 03:13:00,
2013-01-28 22:18:00,50.2,48.9,30.26,SE,127,0.0,0.0,95,0.00,,,0.00,Meteorologica,2013-01-29 03:18:00,
2013-01-28 23:00:00,49.4,49.4,30.26,South,190,3.0,4.4,100,0.00,,,0.00,Meteorologica,2013-01-29 04:00:00,
2013-01-28 23:05:00,49.4,49.4,30.26,South,178,2.2,4.3,100,0.00,,,0.00,Meteorologica,2013-01-29 04:05:00,
2013-01-28 23:10:00,49.4,49.4,30.26,SSW,210,2.7,4.7,100,0.00,,,0.00,Meteorologica,2013-01-29 04:10:00,
2013-01-28 23:15:00,49.3,49.3,30.26,SSW,210,2.0,5.6,100,0.00,,,0.00,Meteorologica,2013-01-29 04:15:00,
2013-01-28 23:20:00,49.2,49.2,30.26,SSW,205,1.2,3.0,100,0.00,,,0.00,Meteorologica,2013-01-29 04:20:00,
2013-01-28 23:25:00,49.2,49.2,30.26,SW,217,1.7,3.6,100,0.00,,,0.00,Meteorologica,2013-01-29 04:25:00,
2013-01-28 23:30:00,49.3,49.3,30.26,SSW,199,1.5,3.3,100,0.00,,,0.00,Meteorologica,2013-01-29 04:30:00,
2013-01-28 23:35:00,49.1,49.1,30.26,SSW,200,2.2,4.0,100,0.00,,,0.00,Meteorologica,2013-01-29 04:35:00,
2013-01-28 23:40:00,49.0,49.0,30.26,SSW,201,2.6,3.7,100,0.00,,,0.00,Meteorologica,2013-01-29 04:40:00,
2013-01-28 23:45:00,48.9,48.9,30.26,SSW,202,2.7,5.3,100,0.00,,,0.00,Meteorologica,2013-01-29 04:45:00,
2013-01-28 23:50:00,48.8,48.8,30.26,SSW,199,1.6,4.1,100,0.00,,,0.00,Meteorologica,2013-01-29 04:50:00,
2013-01-28 23:55:00,48.8,48.8,30.26,SSW,210,2.4,2.9,100,0.00,,,0.00,Meteorologica,2013-01-29 04:55:00,